| time (UTC) | temp F | wind direction | speed knots | gust knots | rain 1hr in | rain 24hr in | rain mn in | humidity % | barometer mb |
| 20260510063601 | 53 | 36 | 0.9 | 2.6 | 0.00 | 0.66 | 0.02 | 97 | 1011.2 |
| 20260510062701 | 52 | 320 | 0.9 | 2.6 | 0.00 | 0.66 | 0.02 | 97 | 1011.1 |
| 20260510061801 | 52 | 332 | 0.9 | 2.6 | 0.00 | 0.66 | 0.02 | 97 | 1011.3 |
| 20260510060901 | 51 | 277 | 0.9 | 2.6 | 0.00 | 0.66 | 0.02 | 97 | 1011.4 |
| 20260510060001 | 51 | 295 | 0.9 | 2.6 | 0.00 | 0.66 | 0.02 | 97 | 1011.3 |
| 20260510055401 | 51 | 169 | 0.9 | 2.6 | 0.00 | 0.66 | 0.02 | 97 | 1011.2 |
| 20260510054501 | 51 | 153 | 0.9 | 3.5 | 0.00 | 0.66 | 0.02 | 97 | 1011.3 |
| 20260510053601 | 51 | 201 | 0.9 | 3.5 | 0.00 | 0.66 | 0.02 | 96 | 1011.4 |
| 20260510052722 | 51 | 212 | 0.9 | 2.6 | 0.00 | 0.66 | 0.02 | 96 | 1011.2 |
| 20260510051801 | 51 | 103 | 0.9 | 1.7 | 0.00 | 0.66 | 0.02 | 96 | 1010.8 |
| 20260510050901 | 51 | 135 | 0.9 | 2.6 | 0.00 | 0.66 | 0.02 | 96 | 1011.1 |
| 20260510050001 | 51 | 153 | 0.9 | 2.6 | 0.00 | 0.66 | 0.02 | 96 | 1011.1 |
| 20260510045401 | 52 | 118 | 0.9 | 2.6 | 0.00 | 0.66 | 0.02 | 97 | 1011.1 |
| 20260510044501 | 52 | 100 | 0.9 | 2.6 | 0.00 | 0.66 | 0.02 | 97 | 1011.3 |
| 20260510043601 | 51 | 91 | 1.7 | 2.6 | 0.00 | 0.66 | 0.02 | 96 | 1011.2 |
| 20260510042701 | 51 | 69 | 1.7 | 3.5 | 0.00 | 0.66 | 0.02 | 96 | 1011.2 |
| 20260510041801 | 52 | 62 | 1.7 | 3.5 | 0.00 | 0.66 | 0.02 | 96 | 1011.1 |
| 20260510040901 | 52 | 83 | 1.7 | 2.6 | 0.00 | 0.66 | 0.02 | 96 | 1011.2 |
| 20260510040022 | 52 | 92 | 1.7 | 2.6 | 0.00 | 0.66 | 0.02 | 96 | 1011.2 |
| 20260510035401 | 52 | 99 | 1.7 | 2.6 | 0.00 | 0.66 | 0.02 | 96 | 1011.3 |
| 20260510034501 | 53 | 58 | 0.9 | 2.6 | 0.00 | 0.66 | 0.02 | 96 | 1011.4 |
| 20260510033622 | 53 | 46 | 1.7 | 2.6 | 0.00 | 0.66 | 0.02 | 96 | 1011.1 |
| 20260510032701 | 52 | 105 | 0.9 | 2.6 | 0.00 | 0.66 | 0.02 | 96 | 1011.2 |
| 20260510031801 | 53 | 191 | 0.0 | 1.7 | 0.00 | 0.66 | 0.02 | 96 | 1011.2 |
| 20260510030901 | 53 | 154 | 0.9 | 2.6 | 0.00 | 0.66 | 0.02 | 96 | 1011.3 |
| 20260510030001 | 53 | 111 | 0.9 | 2.6 | 0.00 | 0.66 | 0.02 | 96 | 1011.3 |
| 20260510025402 | 53 | 92 | 0.9 | 2.6 | 0.00 | 0.66 | 0.02 | 96 | 1011.5 |
| 20260510024502 | 53 | 180 | 0.9 | 2.6 | 0.00 | 0.66 | 0.02 | 96 | 1011.6 |
| 20260510023601 | 53 | 115 | 0.9 | 2.6 | 0.00 | 0.66 | 0.02 | 96 | 1011.5 |
| 20260510022702 | 54 | 92 | 0.9 | 2.6 | 0.00 | 0.66 | 0.02 | 96 | 1011.3 |
| 20260510021802 | 54 | 113 | 0.9 | 2.6 | 0.00 | 0.66 | 0.02 | 96 | 1011.4 |
| 20260510020902 | 54 | 100 | 0.9 | 1.7 | 0.00 | 0.66 | 0.02 | 96 | 1011.4 |
| 20260510020002 | 54 | 109 | 1.7 | 2.6 | 0.00 | 0.66 | 0.02 | 96 | 1011.2 |
| 20260510015401 | 54 | 97 | 1.7 | 2.6 | 0.00 | 0.66 | 0.02 | 95 | 1011.3 |
| 20260510014501 | 54 | 81 | 1.7 | 2.6 | 0.00 | 0.66 | 0.02 | 96 | 1011.2 |
| 20260510013602 | 55 | 126 | 0.9 | 1.7 | 0.00 | 0.66 | 0.02 | 96 | 1011.4 |
| 20260510012701 | 55 | 120 | 0.9 | 2.6 | 0.00 | 0.66 | 0.02 | 96 | 1011.6 |
| 20260510011802 | 55 | 107 | 0.9 | 2.6 | 0.00 | 0.66 | 0.02 | 95 | 1011.6 |
| 20260510010901 | 55 | 109 | 0.9 | 2.6 | 0.00 | 0.66 | 0.02 | 95 | 1011.6 |
| 20260510010002 | 55 | 103 | 0.9 | 2.6 | 0.00 | 0.66 | 0.02 | 95 | 1011.8 |
| 20260510005402 | 55 | 101 | 0.9 | 2.6 | 0.00 | 0.66 | 0.02 | 95 | 1011.9 |
| 20260510004502 | 56 | 84 | 0.9 | 1.7 | 0.00 | 0.66 | 0.02 | 95 | 1012.0 |
| 20260510003602 | 56 | 89 | 0.9 | 1.7 | 0.00 | 0.66 | 0.02 | 95 | 1012.2 |
| 20260510002702 | 56 | 161 | 0.0 | 2.6 | 0.00 | 0.66 | 0.02 | 95 | 1012.3 |
| 20260510001802 | 56 | 285 | 0.9 | 3.5 | 0.01 | 0.66 | 0.02 | 95 | 1012.6 |
| 20260510000923 | 56 | 98 | 0.9 | 3.5 | 0.01 | 0.66 | 0.02 | 95 | 1012.6 |
| 20260510000002 | 56 | 290 | 0.9 | 3.5 | 0.01 | 0.66 | 0.02 | 95 | 1012.8 |
| 20260509235401 | 56 | 319 | 0.9 | 3.5 | 0.01 | 0.66 | 0.02 | 95 | 1013.0 |
| 20260509234502 | 56 | 293 | 0.9 | 2.6 | 0.00 | 0.65 | 0.02 | 95 | 1013.2 |
| 20260509233602 | 56 | 33 | 0.9 | 2.6 | 0.00 | 0.65 | 0.02 | 95 | 1013.2 |
| 20260509232702 | 56 | 104 | 0.9 | 3.5 | 0.01 | 0.65 | 0.02 | 95 | 1013.3 |
| 20260509231802 | 56 | 113 | 0.9 | 2.6 | 0.01 | 0.65 | 0.02 | 95 | 1013.3 |
| 20260509230902 | 56 | 125 | 0.9 | 2.6 | 0.01 | 0.65 | 0.02 | 95 | 1013.3 |
| 20260509230023 | 56 | 260 | 0.9 | 2.6 | 0.02 | 0.65 | 0.02 | 95 | 1013.3 |
| 20260509225402 | 56 | 135 | 0.9 | 2.6 | 0.02 | 0.65 | 0.02 | 95 | 1013.5 |
| 20260509224502 | 56 | 124 | 0.9 | 3.5 | 0.03 | 0.65 | 0.02 | 95 | 1013.3 |
| 20260509223602 | 56 | 105 | 0.9 | 3.5 | 0.03 | 0.65 | 0.02 | 95 | 1013.4 |
| 20260509222702 | 56 | 119 | 0.9 | 3.5 | 0.03 | 0.65 | 0.01 | 94 | 1013.2 |
| 20260509221802 | 56 | 118 | 1.7 | 3.5 | 0.04 | 0.64 | 0.01 | 94 | 1013.4 |
| 20260509220902 | 56 | 32 | 1.7 | 3.5 | 0.04 | 0.64 | 0.00 | 94 | 1013.3 |
| 20260509220024 | 56 | 141 | 0.9 | 2.6 | 0.04 | 0.63 | 0.00 | 94 | 1013.3 |
| 20260509215402 | 56 | 142 | 0.9 | 3.5 | 0.05 | 0.63 | 0.63 | 94 | 1013.0 |
| 20260509214502 | 56 | 158 | 0.9 | 3.5 | 0.04 | 0.62 | 0.62 | 94 | 1013.2 |
| 20260509213623 | 56 | 115 | 1.7 | 2.6 | 0.04 | 0.62 | 0.62 | 94 | 1013.2 |
| 20260509212702 | 56 | 77 | 0.9 | 3.5 | 0.04 | 0.61 | 0.61 | 94 | 1013.3 |
| 20260509211823 | 56 | 166 | 1.7 | 5.2 | 0.04 | 0.61 | 0.61 | 94 | 1013.2 |
| 20260509210902 | 56 | 68 | 1.7 | 4.3 | 0.04 | 0.60 | 0.60 | 93 | 1013.3 |
| 20260509210002 | 56 | 216 | 1.7 | 4.3 | 0.03 | 0.59 | 0.59 | 93 | 1013.0 |
| 20260509205423 | 56 | 136 | 1.7 | 4.3 | 0.03 | 0.59 | 0.59 | 93 | 1013.1 |
| 20260509204502 | 56 | 165 | 1.7 | 4.3 | 0.03 | 0.59 | 0.59 | 93 | 1013.1 |
| 20260509203602 | 56 | 114 | 2.6 | 5.2 | 0.02 | 0.58 | 0.58 | 92 | 1012.9 |
| 20260509202702 | 56 | 91 | 1.7 | 5.2 | 0.02 | 0.57 | 0.57 | 92 | 1012.6 |
| 20260509201802 | 56 | 276 | 1.7 | 6.1 | 0.01 | 0.56 | 0.56 | 92 | 1011.9 |
| 20260509200923 | 56 | 274 | 2.6 | 9.6 | 0.02 | 0.56 | 0.56 | 91 | 1011.6 |
| 20260509200023 | 57 | 305 | 2.6 | 7.8 | 0.04 | 0.56 | 0.56 | 91 | 1011.5 |
| 20260509195402 | 58 | 338 | 3.5 | 7.8 | 0.06 | 0.56 | 0.56 | 92 | 1011.5 |
| 20260509194502 | 58 | 360 | 2.6 | 10.4 | 0.08 | 0.56 | 0.56 | 93 | 1011.2 |
| 20260509193602 | 58 | 15 | 4.3 | 10.4 | 0.11 | 0.56 | 0.56 | 92 | 1010.6 |
| 20260509192702 | 57 | 16 | 4.3 | 17.4 | 0.15 | 0.56 | 0.56 | 93 | 1009.6 |
| 20260509191802 | 57 | 26 | 6.1 | 11.3 | 0.17 | 0.55 | 0.55 | 93 | 1009.5 |
| 20260509190902 | 57 | 44 | 6.1 | 11.3 | 0.18 | 0.54 | 0.54 | 93 | 1010.2 |
| 20260509190002 | 57 | 47 | 5.2 | 8.7 | 0.20 | 0.52 | 0.52 | 93 | 1010.7 |
| 20260509185402 | 57 | 49 | 4.3 | 7.0 | 0.20 | 0.50 | 0.50 | 92 | 1011.1 |
| 20260509184502 | 57 | 44 | 2.6 | 5.2 | 0.22 | 0.48 | 0.48 | 92 | 1011.4 |
| 20260509183602 | 57 | 40 | 1.7 | 3.5 | 0.22 | 0.44 | 0.44 | 91 | 1011.9 |
| 20260509182702 | 57 | 38 | 2.6 | 4.3 | 0.22 | 0.41 | 0.41 | 91 | 1011.9 |
| 20260509181802 | 57 | 78 | 1.7 | 4.3 | 0.24 | 0.38 | 0.38 | 90 | 1012.1 |
| 20260509180902 | 58 | 144 | 0.9 | 3.5 | 0.26 | 0.36 | 0.36 | 90 | 1012.5 |
| 20260509180002 | 58 | 151 | 1.7 | 3.5 | 0.26 | 0.32 | 0.32 | 90 | 1012.7 |
| 20260509175402 | 59 | 162 | 1.7 | 3.5 | 0.26 | 0.30 | 0.30 | 89 | 1012.9 |
| 20260509174502 | 60 | 150 | 0.9 | 2.6 | 0.24 | 0.26 | 0.26 | 88 | 1012.6 |
| 20260509173602 | 60 | 164 | 0.9 | 2.6 | 0.22 | 0.22 | 0.22 | 87 | 1012.3 |
| 20260509172702 | 60 | 158 | 0.9 | 2.6 | 0.18 | 0.18 | 0.18 | 86 | 1012.3 |
| 20260509171823 | 61 | 99 | 0.9 | 2.6 | 0.14 | 0.14 | 0.14 | 88 | 1012.3 |
| 20260509170902 | 62 | 137 | 0.9 | 2.6 | 0.10 | 0.10 | 0.10 | 89 | 1012.4 |
| 20260509170023 | 62 | 95 | 1.7 | 4.3 | 0.07 | 0.07 | 0.07 | 88 | 1012.1 |
| 20260509165402 | 62 | 87 | 2.6 | 5.2 | 0.04 | 0.04 | 0.04 | 87 | 1012.0 |
| 20260509164502 | 62 | 87 | 2.6 | 5.2 | 0.02 | 0.02 | 0.02 | 86 | 1012.1 |
| 20260509163602 | 63 | 72 | 3.5 | 7.0 | 0.00 | 0.00 | 0.00 | 85 | 1011.7 |
| 20260509162702 | 63 | 73 | 3.5 | 7.0 | 0.00 | 0.00 | 0.00 | 83 | 1011.8 |
| 20260509161802 | 63 | 56 | 4.3 | 9.6 | 0.00 | 0.00 | 0.00 | 83 | 1011.4 |
| 20260509160902 | 63 | 47 | 4.3 | 8.7 | 0.00 | 0.00 | 0.00 | 82 | 1011.3 |
| 20260509160002 | 63 | 53 | 4.3 | 7.8 | 0.00 | 0.00 | 0.00 | 82 | 1011.0 |
| 20260509155402 | 63 | 61 | 2.6 | 7.8 | 0.00 | 0.00 | 0.00 | 81 | 1011.3 |
| 20260509154502 | 63 | 64 | 4.3 | 7.8 | 0.00 | 0.00 | 0.00 | 81 | 1011.5 |
| 20260509153602 | 63 | 79 | 2.6 | 5.2 | 0.00 | 0.00 | 0.00 | 80 | 1011.7 |
| 20260509152723 | 63 | 53 | 3.5 | 6.1 | 0.00 | 0.00 | 0.00 | 80 | 1012.0 |
| 20260509151823 | 63 | 37 | 2.6 | 5.2 | 0.00 | 0.00 | 0.00 | 80 | 1011.8 |
| 20260509150902 | 64 | 42 | 2.6 | 5.2 | 0.00 | 0.00 | 0.00 | 80 | 1012.4 |
| 20260509150002 | 63 | 36 | 2.6 | 4.3 | 0.00 | 0.00 | 0.00 | 80 | 1012.5 |
| 20260509145403 | 63 | 33 | 2.6 | 6.1 | 0.00 | 0.00 | 0.00 | 80 | 1012.6 |
| 20260509144503 | 63 | 45 | 3.5 | 7.0 | 0.00 | 0.00 | 0.00 | 80 | 1012.6 |
| 20260509143602 | 63 | 48 | 5.2 | 9.6 | 0.00 | 0.00 | 0.00 | 80 | 1012.4 |
| 20260509142723 | 64 | 23 | 3.5 | 7.8 | 0.00 | 0.00 | 0.00 | 79 | 1012.5 |
| 20260509141802 | 64 | 34 | 3.5 | 9.6 | 0.00 | 0.00 | 0.00 | 80 | 1012.4 |
| 20260509140923 | 63 | 45 | 6.1 | 12.2 | 0.00 | 0.00 | 0.00 | 81 | 1012.5 |
| 20260509140023 | 64 | 57 | 6.1 | 12.2 | 0.00 | 0.00 | 0.00 | 81 | 1012.1 |
| 20260509135403 | 64 | 66 | 7.0 | 11.3 | 0.00 | 0.00 | 0.00 | 80 | 1012.2 |
| 20260509134502 | 64 | 56 | 6.1 | 11.3 | 0.00 | 0.00 | 0.00 | 80 | 1012.3 |
| 20260509133603 | 64 | 53 | 6.1 | 12.2 | 0.00 | 0.00 | 0.00 | 79 | 1012.5 |
| 20260509132703 | 64 | 68 | 5.2 | 11.3 | 0.00 | 0.00 | 0.00 | 80 | 1012.6 |
| 20260509131803 | 64 | 60 | 5.2 | 11.3 | 0.00 | 0.00 | 0.00 | 79 | 1013.0 |
| 20260509130923 | 64 | 73 | 5.2 | 11.3 | 0.00 | 0.00 | 0.00 | 80 | 1013.2 |
| 20260509130003 | 65 | 65 | 4.3 | 9.6 | 0.00 | 0.00 | 0.00 | 78 | 1013.0 |
| 20260509125403 | 65 | 81 | 4.3 | 7.8 | 0.00 | 0.00 | 0.00 | 79 | 1013.0 |
| 20260509124502 | 65 | 57 | 4.3 | 10.4 | 0.00 | 0.00 | 0.00 | 77 | 1013.2 |
| 20260509123603 | 65 | 59 | 5.2 | 10.4 | 0.00 | 0.00 | 0.00 | 75 | 1013.4 |
| 20260509122724 | 65 | 83 | 3.5 | 7.8 | 0.00 | 0.00 | 0.00 | 73 | 1013.6 |
| 20260509121802 | 65 | 75 | 3.5 | 7.8 | 0.00 | 0.00 | 0.00 | 75 | 1013.9 |
| 20260509120903 | 65 | 54 | 4.3 | 8.7 | 0.00 | 0.00 | 0.00 | 78 | 1014.0 |
| 20260509120003 | 65 | 76 | 3.5 | 7.8 | 0.00 | 0.00 | 0.00 | 76 | 1013.8 |
| 20260509115403 | 65 | 52 | 4.3 | 10.4 | 0.00 | 0.00 | 0.00 | 78 | 1013.8 |
| 20260509114503 | 64 | 49 | 6.1 | 12.2 | 0.00 | 0.00 | 0.00 | 80 | 1013.6 |
| 20260509113603 | 64 | 47 | 7.0 | 11.3 | 0.00 | 0.00 | 0.00 | 79 | 1013.7 |
| 20260509112703 | 65 | 55 | 6.1 | 11.3 | 0.00 | 0.00 | 0.00 | 79 | 1013.7 |
| 20260509111803 | 65 | 63 | 6.1 | 13.0 | 0.00 | 0.00 | 0.00 | 79 | 1013.7 |
| 20260509110903 | 65 | 62 | 5.2 | 13.9 | 0.00 | 0.00 | 0.00 | 79 | 1014.1 |
| 20260509110003 | 64 | 58 | 6.1 | 14.8 | 0.00 | 0.00 | 0.00 | 78 | 1014.1 |
| 20260509105403 | 66 | 60 | 5.2 | 12.2 | 0.00 | 0.00 | 0.00 | 76 | 1013.8 |
| 20260509104503 | 65 | 63 | 5.2 | 13.0 | 0.00 | 0.00 | 0.00 | 76 | 1014.0 |
| 20260509103603 | 65 | 47 | 7.0 | 13.0 | 0.00 | 0.00 | 0.00 | 78 | 1014.2 |
| 20260509102724 | 65 | 43 | 7.0 | 13.0 | 0.00 | 0.00 | 0.00 | 78 | 1014.4 |
| 20260509101803 | 64 | 58 | 5.2 | 11.3 | 0.00 | 0.00 | 0.00 | 80 | 1014.5 |
| 20260509100903 | 64 | 59 | 6.1 | 15.6 | 0.00 | 0.00 | 0.00 | 80 | 1014.4 |
| 20260509100003 | 65 | 63 | 4.3 | 11.3 | 0.00 | 0.00 | 0.00 | 79 | 1014.1 |
| 20260509095403 | 64 | 46 | 3.5 | 7.8 | 0.00 | 0.00 | 0.00 | 79 | 1014.1 |
| 20260509094503 | 64 | 12 | 3.5 | 7.0 | 0.00 | 0.00 | 0.00 | 79 | 1014.1 |
| 20260509093603 | 64 | 25 | 3.5 | 7.8 | 0.00 | 0.00 | 0.00 | 80 | 1013.9 |
| 20260509092724 | 64 | 26 | 3.5 | 7.0 | 0.00 | 0.00 | 0.00 | 79 | 1014.0 |
| 20260509091803 | 63 | 15 | 3.5 | 7.8 | 0.00 | 0.00 | 0.00 | 80 | 1013.6 |
| 20260509090903 | 62 | 356 | 5.2 | 8.7 | 0.00 | 0.00 | 0.00 | 81 | 1013.6 |
| 20260509090024 | 62 | 358 | 5.2 | 8.7 | 0.00 | 0.00 | 0.00 | 82 | 1013.6 |
| 20260509085403 | 62 | 3 | 4.3 | 7.8 | 0.00 | 0.00 | 0.00 | 80 | 1013.8 |
| 20260509084503 | 62 | 353 | 5.2 | 8.7 | 0.00 | 0.00 | 0.00 | 80 | 1013.8 |
| 20260509083624 | 62 | 349 | 4.3 | 7.8 | 0.00 | 0.00 | 0.00 | 79 | 1014.0 |
| 20260509082701 | 62 | 28 | 2.6 | 5.2 | 0.00 | 0.00 | 0.00 | 78 | 1014.1 |
| 20260509081801 | 61 | 6 | 2.6 | 5.2 | 0.00 | 0.00 | 0.00 | 78 | 1014.2 |
| 20260509080901 | 61 | 11 | 2.6 | 5.2 | 0.00 | 0.00 | 0.00 | 79 | 1014.1 |
| 20260509080001 | 61 | 58 | 2.6 | 5.2 | 0.00 | 0.00 | 0.00 | 80 | 1014.4 |
| 20260509075401 | 60 | 29 | 1.7 | 5.2 | 0.00 | 0.00 | 0.00 | 80 | 1014.2 |
| 20260509074501 | 60 | 58 | 0.9 | 3.5 | 0.00 | 0.00 | 0.00 | 80 | 1014.5 |
| 20260509073601 | 59 | 39 | 0.9 | 2.6 | 0.00 | 0.00 | 0.00 | 82 | 1014.5 |
| 20260509072722 | 58 | 8 | 1.7 | 3.5 | 0.00 | 0.00 | 0.00 | 83 | 1014.5 |
| 20260509071801 | 58 | 350 | 1.7 | 3.5 | 0.00 | 0.00 | 0.00 | 84 | 1014.5 |
| 20260509070901 | 58 | 290 | 0.9 | 3.5 | 0.00 | 0.00 | 0.00 | 84 | 1014.3 |
| 20260509070001 | 58 | 324 | 0.9 | 3.5 | 0.00 | 0.00 | 0.00 | 85 | 1014.6 |
| 20260509065401 | 58 | 356 | 0.9 | 3.5 | 0.00 | 0.00 | 0.00 | 86 | 1014.6 |
| 20260509064501 | 58 | 1 | 2.6 | 3.5 | 0.00 | 0.00 | 0.00 | 87 | 1014.3 |